Zurück zum Katalog

NIMBUS 2 DEB

AktivLEO
NORAD 26670·DEBRIS·🇺🇸 United States

Gestartet May 15, 1966 von Vandenberg Space Force Base

Loading…

Nächste Überflüge (nächste 24 Stunden)

TLE

AktuellSource: Space-Track

Epoche: Sep 14, 2026, 01:27 UTC

1 26670U 66040K   26257.06101507  .00004374  00000-0  30024-2 0  9998
2 26670 100.2854 104.7600 0027659 200.0963 312.3538 13.99933632963034

Verfolge NIMBUS 2 DEB in Echtzeit mit AllMySat

Download on the App Store